Regional Weather Roundup
Issued by NWS

Home | Current Version | Previous Version | Text Only | Print | Product List | Glossary Off
Versions: 1 2 3 4 5 6 7 8 9 10 11 12 13 14 15 16 17 18 19 20 21 22 23 24 25 26 27 28 29 30 31 32 33 34 35 36 37 38 39 40 41 42 43 44 45 46 47 48 49 50

000
ASUS45 KSLC 241910
RWRUT

UTAH REGIONAL WEATHER ROUNDUP
NATIONAL WEATHER SERVICE SALT LAKE CITY UT
1200 PM MST WED DEC 24 2014

UTZ001>011-023>025-242000-

NORTHERN UTAH

CITY           SKY/WX    TMP DP  RH WIND       PRES   REMARKS
BRIGHAM CITY   CLOUDY    34  22  61 CALM      29.96F
HILL AFB       CLOUDY    33  16  49 E9        29.94F WCI  26
LOGAN          SUNNY     32  20  61 NE3       29.94F
OGDEN          CLOUDY    36  17  46 SE7       29.95F WCI  30
PROVO AIRPORT  NOT AVBL
SALT LAKE CITY CLOUDY    38  20  48 SE12      29.95F WCI  30
VERNAL         SUNNY     29  13  51 SE3       30.05F
WENDOVER       CLOUDY    30  19  64 E7        29.94F WCI  23
HEBER CITY     PTSUNNY   28  19  69 CALM      29.96F
WEST JORDAN    SUNNY     36  23  60 S22G30    29.94F WCI  24

$$

UTZ012>022-026-027-242000-

SOUTHERN/CENTRAL UTAH

CITY           SKY/WX    TMP DP  RH WIND       PRES   REMARKS
BLANDING       SUNNY     34  13  41 S6        30.18F WCI  29
BRYCE CANYON   MOSUNNY   35  13  40 SE12      30.05F WCI  27
CEDAR CITY     PTSUNNY   42  13  30 SW14      30.03F
DELTA          CLOUDY    34  20  56 N3        29.98F
MILFORD        PTSUNNY   38  12  34 SW24      29.99F WCI  27
MOAB/CYNLANDS  SUNNY     34  13  41 SE5       30.11F WCI  30
PRICE          MOSUNNY   31  12  45 SE7       30.07F WCI  24
ST GEORGE      MOCLDY    39  14  35 CALM      30.14F
KANAB          MOSUNNY   39  14  35 SW5       30.14F

$$

REGIONAL REPORTS     COLORADO/ARIZONA

CITY           SKY/WX    TMP DP  RH WIND       PRES   REMARKS
CRAIG, CO      PTSUNNY   20  11  68 S5        30.04F WCI  13
GRAND JUNCTION SUNNY     30  11  45 SE6       30.13F WCI  24
RIFLE          SUNNY     23   9  55 W5        30.13F WCI  17
MONTROSE       SUNNY     30   8  39 NW5       30.12F WCI  25
CORTEZ         SUNNY     34  11  38 W8        30.12F WCI  27
PAGE, AZ       SUNNY     41  16  36 NE3       30.11F
GRAND CANYON   SUNNY     45  11  25 SW5       30.11F
KINGMAN        PTSUNNY   53  13  20 CALM      30.11F
FLAGSTAFF      SUNNY     48  10  21 SW3       30.11F

$$

REGIONAL REPORTS    NEVADA/IDAHO/WYOMING

CITY           SKY/WX    TMP DP  RH WIND       PRES   REMARKS
LAS VEGAS, NV  CLOUDY    50  21  32 S5        30.06F
ELY            CLOUDY    41  25  53 SW13      29.97F
ELKO           CLOUDY    39  30  70 CALM      29.86F
POCATELLO, ID  PTSUNNY   40  19  43 S13G21    29.81F WCI  32
EVANSTON, WY   PTSUNNY   28  16  60 SW13      29.88F WCI  17
ROCK SPRINGS   CLOUDY    32  23  69 SW12      29.90F WCI  23
KEMMERER       MOSUNNY   30  18  59 SW3       29.87F

$$



USA.gov is the U.S. government's official web portal to all federal, state and local government web resources and services.